[[{"header":{"parameterUnit":"m.s-1","parameterCategory":1,"la1":30.2991,"la2":30.254,"lo1":-89.0895,"lo2":-89.0444,"dy":0.0017,"dx":0.0017,"nx":28,"ny":28,"refTime":"2026-02-10T03:00:00:Z","depth":0,"parameterNumber":2,"parameterNumberName":"U-component_of_WINDS"},"data":[0,0,0,0,0,0,0,0,0,0,0,0,0,0,0,0,0,0,0,0,0,0,0,0,0,0,0,0,0,0,0,0,0,0,0,0,0,0,0,0,0,0,0,0,0,0,0,0,0,0,0,0,0,0,0,0,0,0,-0.9509,-0.9509,0,-0.9549,-0.9549,-0.9549,-0.9518,-0.9517,-0.9516,-0.9514,-0.9557,-0.9559,-0.9562,0,0,0,0,0,0,0,0,0,0,0,0,0,-0.9408,-0.941,-0.9509,-0.9509,-0.951,-0.9549,-0.9549,-0.955,-0.9518,-0.9517,-0.9515,-0.9514,-0.9556,-0.9559,-0.9562,0,0,0,0,0,0,0,0,0,0,0,0,0,-0.945,-0.941,-0.9509,-0.9499,-0.9498,-0.9548,-0.9549,-0.955,-0.9519,-0.9517,-0.9515,-0.9513,-0.9555,-0.9559,-0.9562,-0.9625,0,0,-0.9573,-0.9575,0,0,0,0,0,0,0,0,-0.9448,-0.9454,-0.95,-0.9499,-0.9499,-0.9526,-0.9529,-0.9575,-0.9519,-0.9511,-0.9514,-0.9512,-0.9549,-0.9553,-0.9565,-0.9627,-0.9629,-0.9574,-0.9576,-0.9577,-0.9578,0,0,0,0,0,0,0,-0.9445,-0.9452,-0.9524,-0.95,-0.95,-0.9493,-0.9497,-0.9538,-0.9541,-0.9512,-0.9509,-0.9515,-0.9548,-0.9561,-0.9565,-0.9629,-0.9573,-0.9577,-0.9579,-0.958,-0.9745,-0.9747,0,0,0,0,0,0,-0.9442,-0.945,-0.9523,-0.9526,-0.9468,-0.9497,-0.9501,-0.952,-0.954,-0.9541,-0.9516,-0.9513,-0.9556,-0.9561,-0.9567,-0.9641,-0.9577,-0.9581,-0.9583,-0.9743,-0.9746,-0.9748,0,0,0,0,0,0,-0.944,-0.9449,-0.9522,-0.9487,-0.9496,-0.95,-0.9522,-0.9521,-0.9534,-0.9544,-0.9544,-0.9529,-0.9555,-0.9562,-0.9611,-0.9642,-0.9582,-0.9585,-0.974,-0.9744,-0.9747,-0.979,0,0,0,0,0,0,-0.9438,-0.9449,-0.9472,-0.9488,-0.9498,-0.9564,-0.9524,-0.9524,-0.9541,-0.9537,-0.9556,-0.9557,-0.9554,-0.9605,-0.9614,-0.9646,-0.9588,-0.9738,-0.9742,-0.9746,-0.9786,-0.9795,-0.9802,0,0,0,0,0,-0.9434,-0.9483,-0.9473,-0.9482,-0.9527,-0.9566,-0.9572,-0.9566,-0.9543,-0.9567,-0.9573,-0.9556,-0.9637,-0.9611,-0.962,-0.9654,-0.9736,-0.9741,-0.9746,-0.9782,-0.9793,-0.9802,0,0,0,0,0,0,-0.9471,-0.9485,-0.9474,-0.9529,-0.9547,-0.9561,-0.959,-0.9578,-0.9602,-0.9598,-0.9591,-0.9595,-0.9647,-0.9655,-0.9625,-0.9715,-0.9683,-0.969,-0.9708,-0.9718,-0.9726,-0.9722,-0.9591,0,0,0,0,0,-0.9485,-0.9515,-0.9526,-0.9574,-0.9583,-0.9585,-0.9602,-0.9597,-0.9615,-0.9622,-0.9631,-0.965,-0.968,-0.9699,-0.9727,-0.9788,-0.9791,-0.9815,-0.9823,-0.983,-0.9836,-0.9869,-0.9879,-0.9765,-0.9765,-0.9764,0,0,-0.9515,-0.9527,-0.9546,-0.9582,-0.9594,-0.9626,-0.9592,-0.9627,-0.9651,-0.9628,-0.9674,-0.9682,-0.9702,-0.9757,-0.9782,-0.9766,-0.9869,-0.9836,-0.9841,-0.9844,-0.9875,-0.9886,-0.9895,-0.9768,-0.9767,-0.9767,0,0,-0.9587,-0.9598,-0.9639,-0.9653,-0.9673,-0.9674,-0.9684,-0.97,-0.9704,-0.9751,-0.9734,-0.9763,-0.9814,-0.9829,-0.9844,-0.9922,-0.9908,-0.9931,-0.9973,-1.0005,-1.0014,-1.0022,-1.0049,-1.0059,-0.9938,-0.9938,-0.9938,0,-0.9622,-0.9668,-0.9662,-0.9699,-0.9715,-0.9695,-0.9737,-0.9751,-0.9779,-0.9791,-0.9773,-0.9837,-0.9849,-0.9907,-0.9926,-0.9939,-0.995,-0.9929,-1.0013,-1.0021,-1.0028,-1.0054,-1.0065,-0.994,-0.994,-0.994,-0.994,0,-0.9711,-0.9744,-0.9774,-0.9801,-0.9821,-0.986,-0.9861,-0.9882,-0.9875,-0.9879,-0.9927,-0.9941,-0.9971,-0.9985,-0.9979,-1.0043,-1.0032,-1.0014,-0.9981,-1.0042,-1.0066,-1.0076,-0.9944,-0.9943,-0.9943,-0.9942,0,0,-0.9805,-0.9828,-0.984,-0.9852,-0.9873,-0.9898,-0.9937,-0.9966,-0.9985,-1.0005,-1.0037,-1.0082,-1.0065,-1.0082,-1.0077,-1.0106,-1.0166,-1.0084,-1.0084,-1.0098,-1.0237,-1.025,-1.0261,-1.0157,-1.0159,-1.0161,-1.0235,0,-0.9876,-0.9942,-0.9938,-1.0001,-1.0031,-1.0014,-1.0048,-1.0065,-1.007,-1.0097,-1.0102,-1.0133,-1.0109,-1.0119,-1.0146,-1.0153,-1.0194,-1.0148,-1.0187,-1.0189,-1.0181,-1.0274,-1.0288,-1.0357,-1.0245,-1.0246,-1.0247,0,-0.9968,-0.9991,-1.0057,-1.0074,-1.0086,-1.0116,-1.0143,-1.0169,-1.0189,-1.019,-1.0209,-1.02,-1.024,-1.0207,-1.0262,-1.0231,-1.0247,-1.0253,-1.0256,-1.0258,-1.0221,-1.0279,-1.0379,-1.0389,-1.0263,-1.0261,-1.026,0,-1.0029,-1.0077,-1.0123,-1.0134,-1.0155,-1.0176,-1.0186,-1.0203,-1.0221,-1.0245,-1.0257,-1.0286,-1.0301,-1.0324,-1.0323,-1.0299,-1.0379,-1.0346,-1.0381,-1.0381,-1.0397,-1.0396,-1.0501,-1.041,-1.041,-1.041,-1.0409,0,-1.0109,-1.015,-1.015,-1.0178,-1.0223,-1.0219,-1.0264,-1.0272,-1.0288,-1.0317,-1.0305,-1.0333,-1.0331,-1.0359,-1.036,-1.0405,-1.0412,-1.0415,-1.0414,-1.0415,-1.0415,-1.0425,-1.0419,-1.0412,-1.0412,-1.0411,-1.0411,0,-1.0185,-1.0187,-1.0235,-1.0251,-1.0256,-1.0288,-1.0302,-1.0329,-1.0333,-1.0371,-1.0379,-1.0386,-1.0419,-1.0421,-1.046,-1.046,-1.0514,-1.0509,-1.0507,-1.0506,-1.0541,-1.0537,-1.0655,-1.067,-1.057,-1.0571,-1.0572,0,-1.0235,-1.0265,-1.0285,-1.0303,-1.0314,-1.0345,-1.0363,-1.036,-1.038,-1.0405,-1.0429,-1.046,-1.0486,-1.054,-1.0548,-1.0578,-1.0572,-1.0612,-1.0576,-1.0577,-1.0572,-1.0569,-1.0572,-1.0618,-1.0619,-1.062,-1.0621,0,-1.0323,-1.0323,-1.035,-1.0377,-1.0399,-1.0421,-1.0441,-1.0457,-1.0457,-1.048,-1.0513,-1.0533,-1.0572,-1.0604,-1.0633,-1.0643,-1.0632,-1.0632,-1.0641,-1.0642,-1.064,-1.0641,-1.0525,-1.0629,-1.0628,-1.0627,-1.0627,-1.0627,-1.0387,-1.0414,-1.0431,-1.0462,-1.0476,-1.0496,-1.0521,-1.0529,-1.0556,-1.0587,-1.0585,-1.0622,-1.0641,-1.0679,-1.0692,-1.0721,-1.0708,-1.0722,-1.0725,-1.0729,-1.0732,-1.0636,-1.0727,-1.0727,-1.0726,-1.0726,-1.0726,0,-1.0474,-1.0485,-1.0513,-1.0541,-1.0565,-1.0553,-1.0575,-1.0595,-1.0628,-1.0647,-1.0672,-1.071,-1.0741,-1.0753,-1.0783,-1.0804,-1.08,-1.0812,-1.081,-1.0813,-1.0742,-1.0731,-1.0815,-1.0815,-1.0815,-1.0815,-1.0815,-1.0815,-1.0523,-1.0567,-1.0569,-1.062,-1.0631,-1.0667,-1.068,-1.0698,-1.0713,-1.0756,-1.0782,-1.0789,-1.0805,-1.0836,-1.0864,-1.0867,-1.0878,-1.0893,-1.0893,-1.0827,-1.0818,-1.0809,-1.0798,-1.0895,-1.0896,-1.0961,-1.0961,-1.0962]},{"header":{"parameterUnit":"m.s-1","parameterCategory":1,"la1":30.2991,"la2":30.254,"lo1":-89.0895,"lo2":-89.0444,"dy":0.0017,"dx":0.0017,"nx":28,"ny":28,"refTime":"2026-02-10T03:00:00:Z","depth":0,"parameterNumber":3,"parameterNumberName":"V-component_of_WINDS"},"data":[0,0,0,0,0,0,0,0,0,0,0,0,0,0,0,0,0,0,0,0,0,0,0,0,0,0,0,0,0,0,0,0,0,0,0,0,0,0,0,0,0,0,0,0,0,0,0,0,0,0,0,0,0,0,0,0,0,0,0.2528,0.2528,0,0.2611,0.2612,0.2613,0.2642,0.2642,0.2641,0.2641,0.2728,0.2731,0.2733,0,0,0,0,0,0,0,0,0,0,0,0,0,0.2398,0.2401,0.2528,0.2529,0.253,0.2611,0.2612,0.2613,0.2642,0.2642,0.2641,0.2641,0.2727,0.273,0.2734,0,0,0,0,0,0,0,0,0,0,0,0,0,0.2465,0.2401,0.2527,0.2554,0.2557,0.261,0.2612,0.2613,0.2642,0.2642,0.2641,0.2641,0.2726,0.273,0.2734,0.2768,0,0,0.2746,0.2748,0,0,0,0,0,0,0,0,0.2462,0.247,0.2549,0.2552,0.2556,0.2615,0.2598,0.2665,0.2642,0.261,0.2641,0.2641,0.2691,0.2698,0.2715,0.2772,0.2775,0.2746,0.2749,0.275,0.2751,0,0,0,0,0,0,0,0.2457,0.2467,0.2561,0.255,0.2554,0.2563,0.2572,0.2611,0.2652,0.2613,0.2615,0.2624,0.2693,0.2711,0.2717,0.2777,0.2746,0.275,0.2752,0.2754,0.2869,0.287,0,0,0,0,0,0,0.2447,0.2463,0.2558,0.2563,0.2506,0.2566,0.2576,0.2597,0.2652,0.266,0.2625,0.2625,0.2704,0.2712,0.272,0.2765,0.275,0.2754,0.2756,0.2869,0.287,0.287,0,0,0,0,0,0,0.2444,0.2455,0.2555,0.2514,0.2527,0.2569,0.2592,0.2599,0.2617,0.2661,0.2669,0.2635,0.2704,0.2715,0.2756,0.2769,0.2756,0.2759,0.2868,0.2869,0.287,0.2854,0,0,0,0,0,0,0.2441,0.2454,0.2466,0.2514,0.2529,0.2588,0.2593,0.2601,0.2623,0.2625,0.2673,0.268,0.2705,0.275,0.276,0.2774,0.2762,0.2867,0.2868,0.287,0.2854,0.2855,0.2855,0,0,0,0,0,0.2436,0.2458,0.2467,0.2478,0.2544,0.2588,0.2597,0.2624,0.2624,0.2637,0.2666,0.2679,0.2766,0.2754,0.2766,0.2781,0.2866,0.2868,0.2869,0.2854,0.2855,0.2855,0,0,0,0,0,0,0.2411,0.2465,0.2475,0.2513,0.2546,0.2593,0.261,0.2624,0.2659,0.2659,0.2692,0.2703,0.2742,0.2766,0.2752,0.2818,0.2817,0.2821,0.2801,0.2802,0.2803,0.2797,0.2766,0,0,0,0,0,0.241,0.244,0.2486,0.2515,0.2531,0.2568,0.2588,0.2607,0.2643,0.2657,0.2689,0.2724,0.276,0.2782,0.2817,0.2858,0.287,0.2874,0.2875,0.2875,0.2878,0.2904,0.2907,0.2876,0.2876,0.2876,0,0,0.2408,0.2441,0.2458,0.2511,0.2539,0.2571,0.258,0.2612,0.2637,0.2662,0.2703,0.2729,0.277,0.2812,0.2832,0.2833,0.289,0.2877,0.2877,0.288,0.2906,0.2909,0.2912,0.2877,0.2877,0.2876,0,0,0.2421,0.2448,0.2477,0.2505,0.2547,0.2572,0.2579,0.2625,0.2643,0.2685,0.2705,0.2736,0.2796,0.2826,0.2849,0.2877,0.2891,0.2888,0.2891,0.2916,0.2919,0.2921,0.2933,0.2937,0.2891,0.289,0.289,0,0.2413,0.2461,0.249,0.2522,0.2546,0.2571,0.2601,0.2628,0.2679,0.2696,0.2696,0.2774,0.2804,0.2854,0.2861,0.2879,0.2889,0.2882,0.2916,0.2919,0.2922,0.2933,0.2937,0.289,0.289,0.289,0.289,0,0.2451,0.2484,0.2502,0.2552,0.2578,0.2609,0.2645,0.2668,0.2685,0.2711,0.2755,0.2792,0.2837,0.285,0.2866,0.2904,0.2904,0.2909,0.2909,0.2924,0.2935,0.294,0.2889,0.2889,0.289,0.289,0,0,0.2448,0.2515,0.2522,0.2546,0.2596,0.2623,0.2657,0.27,0.2721,0.2757,0.2787,0.2839,0.2846,0.2872,0.2893,0.2914,0.2937,0.2918,0.292,0.2922,0.2984,0.2979,0.2984,0.2947,0.2948,0.2949,0.2981,0,0.2469,0.2529,0.2557,0.2606,0.2639,0.2664,0.2694,0.2729,0.2755,0.2788,0.2817,0.2854,0.2859,0.2875,0.2898,0.2929,0.295,0.2928,0.2977,0.2979,0.2966,0.299,0.2984,0.3013,0.2985,0.2986,0.2987,0,0.2499,0.2536,0.2588,0.2637,0.2651,0.2678,0.2721,0.2752,0.2793,0.2811,0.2842,0.2862,0.2901,0.2899,0.2954,0.2938,0.2961,0.298,0.2982,0.2988,0.2983,0.2997,0.3022,0.3027,0.2994,0.2993,0.2993,0,0.2494,0.2556,0.2596,0.2616,0.2673,0.2692,0.2717,0.2758,0.2783,0.2822,0.2839,0.2882,0.2906,0.2939,0.2972,0.2967,0.3025,0.3025,0.3043,0.3042,0.3053,0.3052,0.3083,0.3067,0.3067,0.3066,0.3066,0,0.2514,0.2545,0.2595,0.2619,0.2656,0.269,0.2726,0.2753,0.279,0.2822,0.2847,0.2876,0.2917,0.2953,0.2979,0.3022,0.3032,0.3049,0.3056,0.3047,0.3045,0.3062,0.3062,0.3068,0.3067,0.3067,0.3067,0,0.2514,0.2548,0.2593,0.2645,0.2659,0.2684,0.2729,0.2755,0.2783,0.2824,0.2835,0.2879,0.2923,0.2959,0.3016,0.3033,0.3079,0.3086,0.3065,0.3069,0.3085,0.3083,0.3128,0.3137,0.3113,0.3114,0.3114,0,0.2524,0.2549,0.2604,0.2627,0.2652,0.2688,0.2715,0.275,0.2777,0.2828,0.2849,0.2894,0.2932,0.3001,0.3039,0.3084,0.3093,0.3106,0.3099,0.3091,0.3095,0.3093,0.3097,0.3106,0.3106,0.3106,0.3106,0,0.254,0.2556,0.2592,0.2636,0.2667,0.2703,0.274,0.2758,0.2801,0.283,0.2875,0.2904,0.2964,0.3009,0.3059,0.3086,0.3104,0.3108,0.3115,0.3106,0.3094,0.3103,0.3067,0.3107,0.3107,0.3107,0.3107,0.3107,0.2546,0.257,0.2613,0.2654,0.2686,0.2721,0.2748,0.2781,0.2819,0.2869,0.2889,0.2935,0.298,0.3048,0.3076,0.3115,0.3117,0.3126,0.3128,0.313,0.313,0.3087,0.3124,0.3124,0.3124,0.3124,0.3124,0,0.2564,0.2593,0.2631,0.2682,0.2715,0.2729,0.2772,0.2799,0.2839,0.2879,0.2917,0.297,0.3016,0.3058,0.3106,0.3129,0.3139,0.3141,0.3139,0.3146,0.3125,0.3115,0.3132,0.3132,0.3132,0.3132,0.3132,0.3132,0.2577,0.2619,0.2642,0.2701,0.2732,0.2777,0.2801,0.2834,0.2866,0.2924,0.2962,0.299,0.3032,0.3084,0.3127,0.3139,0.3156,0.3156,0.317,0.3149,0.3147,0.3146,0.3137,0.3159,0.3159,0.3188,0.3189,0.3189]}]]